Regional Weather Roundup
Issued by NWS

Home | Current Version | Previous Version | Text Only | Print | Product List | Glossary On
Versions: 1 2 3 4 5 6 7 8 9 10 11 12 13 14 15 16 17 18 19 20 21 22 23 24 25 26 27 28 29 30 31 32 33 34 35 36 37 38 39 40 41 42 43 44 45 46 47 48 49 50
000
ASUS43 KLOT 170910
RWRIL

ILLINOIS REGIONAL WEATHER ROUNDUP
NATIONAL WEATHER SERVICE CHICAGO/ROMEOVILLE IL
400 AM CDT THU APR 17 2014

NOTE: "FAIR" INDICATES FEW OR NO CLOUDS BELOW 12,000 FEET WITH NO
SIGNIFICANT WEATHER AND/OR OBSTRUCTIONS TO VISIBILITY.

* THESE STATIONS ARE NOT UNDER NWS QUALITY CONTROL. THEY ALSO MAY NOT
  REPORT WEATHER SUCH AS PRECIPITATION OR FOG.

ILZ001-002-007-009-015-016-024-171000-
NORTHWEST ILLINOIS

CITY           SKY/WX    TMP DP  RH WIND       PRES   REMARKS
MOLINE         CLOUDY    46  27  47 S16G23    30.02R
STERLING*      CLOUDY    45  30  57 S8G16     30.04R
SAVANNA*       MOCLDY    44  30  58 S14       30.01S
$$

ILZ003-004-008-010-011-017-018-171000-
NORTH CENTRAL ILLINOIS

CITY           SKY/WX    TMP DP  RH WIND       PRES   REMARKS
ROCKFORD       CLOUDY    42  28  57 S13       30.07F
FREEPORT*      CLOUDY    44  33  64 S21       30.04R
ROCHELLE*      CLOUDY    40  30  67 SE17G24   30.06S
DE KALB*       CLOUDY    40  27  61 S20G25    30.09S
PERU*          MOCLDY    40  32  71 S12       30.08F
$$

ILZ005-006-012>014-019>023-171000-
NORTHEAST ILLINOIS

CITY           SKY/WX    TMP DP  RH WIND       PRES   REMARKS
CHICAGO-OHARE  CLOUDY    43  24  47 S15       30.13F
CHICAGO-MIDWAY MOCLDY    43  25  49 S15G22    30.14F
AURORA         CLOUDY    42  27  55 S15       30.11S
LANSING*       PTCLDY    40  26  56 SE14      30.16F
WAUKEGAN       CLOUDY    40  30  67 SE13G24   30.12F
DUPAGE AIRPORT MOCLDY    41  26  55 S15       30.11S
KANKAKEE*      MOCLDY    37  28  72 SE8       30.17S WCI  30
WHEELING       CLOUDY    44  25  47 S15       30.13F
MORRIS*        MOCLDY    42  24  50 S16       30.12S
ROMEOVILLE*    CLOUDY    39  27  62 S13       30.13S WCI  31
NORTHERLY ISL    N/A     43  27  53 S14         N/A
$$

LMZ740>746-171000-
SOUTHERN LAKE MICHIGAN

STATION/POSITION SKY/WX   TEMP    WIND        PRES    VSBY  WAVE
                          AIR SEA DIR/SP/G                  HT/PER
                          (F)     (DEG/KT/KT) (MB)    (MI)  (FT/S)
WAUKEGAN HARBOR            40     150/ 18/ 22 1021.0F
HARRISON CRIB              42     160/ 22/ 27   N/A
BURNHAM HARBOR             43     160/ 15/ 16   N/A
CALUMET HARBOR             42     150/ 13/ 18 1021.6F
MICHIGAN CITY              42     120/ 13/ 17   N/A
$$

ILZ025>027-034>036-040-047-049-050-058-095>099-171000-
WEST-CENTRAL ILLINOIS

CITY           SKY/WX    TMP DP  RH WIND       PRES   REMARKS
QUINCY         CLEAR     45  28  51 S14       30.07R
GALESBURG*     MOCLDY    45  31  60 S15G21    30.05R
MACOMB*        PTCLDY    45  30  56 S12       30.08R
JACKSONVILLE*  CLEAR     46  31  56 S13       30.11F
PITTSFIELD*    CLEAR     47  30  50 S10       30.10S
$$

ILZ028>032-037-038-041>044-048-051>054-059>061-171000-
CENTRAL ILLINOIS

CITY           SKY/WX    TMP DP  RH WIND       PRES   REMARKS
PONTIAC        MOCLDY    43  30  61 S15       30.12F
BLOOMINGTON    CLEAR     37  28  70 S15       30.13S WCI  28
DECATUR        PTCLDY    40  30  67 S10       30.16S
PEORIA         PTCLDY    43  30  60 S14       30.09S
LACON*         MOCLDY    44  31  60 S13       30.08S
LINCOLN*       PTCLDY    42  32  68 S10       30.14S
SPRINGFIELD    PTCLDY    45  30  55 S16       30.12F
TAYLORVILLE    PTCLDY    41  32  70 S12       30.15S
$$

ILZ033-039-045-046-055>057-062-063-171000-
EAST-CENTRAL ILLINOIS

CITY           SKY/WX    TMP DP  RH WIND       PRES   REMARKS
CHAMPAIGN      PTCLDY    34  28  79 SE6       30.17R WCI  29
RANTOUL*       PTCLDY    37  29  72 CALM      30.18R
MATTOON        CLEAR     41  29  62 S9        30.17R
PARIS*         CLEAR     36  29  76 SE8       30.19S WCI  30
$$

ILZ079-100>102-171000-
SOUTHWEST ILLINOIS

CITY           SKY/WX    TMP DP  RH WIND       PRES   REMARKS
ALTON          CLEAR     37  31  78 E3        30.16S
BELLEVILLE     CLEAR     38  32  78 CALM      30.17R
CAHOKIA*       CLEAR     41  31  67 S5        30.16S
SPARTA*        CLEAR     36  32  87 SE5       30.19R WCI  32
$$

ILZ064>066-069>071-074>076-080>082-084>086-088>090-092>094-171000-
SOUTH-CENTRAL ILLINOIS

CITY           SKY/WX    TMP DP  RH WIND       PRES   REMARKS
CARBONDALE     CLEAR     34  31  88 SE3       30.19S
CAIRO*         CLEAR     49  33  53 S5        30.20S
MARION         CLEAR     37  32  81 CALM      30.20R
MT. VERNON     CLEAR     32  21  64 CALM      30.20R
CENTRALIA*       N/A     36  31  83 CALM      30.19R
SALEM*         CLEAR     40  32  75 SE5       30.19R
METROPOLIS*    CLEAR     39  33  77 CALM      30.20S
$$

ILZ067-068-072-073-078-083-087-091-171000-
SOUTHEAST ILLINOIS

CITY           SKY/WX    TMP DP  RH WIND       PRES   REMARKS
FAIRFIELD*     CLEAR     43  34  70 CALM      30.20R
HARRISBURG*    CLEAR     38  33  82 SE3       30.22S
ROBINSON*      CLEAR     37  31  80 SE6       30.21F WCI  32
CARMI*         CLEAR     42  36  80 SE7       30.20S
$$

ABBREVIATIONS USED IN REMARKS
   TC - TEMPERATURE IN CELSIUS
  WCI - WIND CHILL INDEX
   HX - HEAT INDEX
  VSB - VISIBILITY
$$




USA.gov is the U.S. government's official web portal to all federal, state and local government web resources and services.